Regional Weather Roundup
Issued by NWS Huntsville, AL

Home | Current Version | Previous Version | Text Only | Print | Product List | Glossary On
Versions: 1 2 3 4 5 6 7 8 9 10 11 12 13 14 15 16 17 18 19 20 21 22 23 24 25 26 27 28 29 30 31 32 33 34 35 36 37 38 39 40 41 42 43 44 45 46 47 48
000
ASUS44 KHUN 260310
RWRHUN

WEATHER ROUNDUP FOR THE TENNESSEE VALLEY
NATIONAL WEATHER SERVICE HUNTSVILLE AL
900 PM CST THU DEC 25 2014

ALZ001>004-260400-
NORTHWEST ALABAMA

CITY           SKY/WX    TMP DP  RH WIND       PRES   REMARKS
COURTLAND HCN    N/A     39 N/A N/A S5          N/A
RUSSELLVILLE     N/A     43 N/A N/A MISG        N/A
SHOALS AIRPORT CLEAR     39  33  79 SE6       30.21S WCI  35
SHOALS TVA RES   N/A     39 N/A N/A MISG        N/A
$$

ALZ005>007-016-260400-
NORTH CENTRAL ALABAMA

CITY           SKY/WX    TMP DP  RH WIND       PRES   REMARKS
CULLMAN AG STN   N/A     32 N/A N/A CALM        N/A
DECATUR AP     CLEAR     39  33  79 SE6       30.22S WCI  35
HUNTSVILLE AP  CLEAR     41  35  79 SE3       30.22R
HUN NWS/UAH      N/A     40  34  79 SE3         N/A
MERIDIANVILLE  CLEAR     36  32  87 CALM      30.22R
REDSTONE ARSN  CLEAR     39  36  87 S5        30.22R
VINEMONT AP    FAIR      39  34  82 S6        30.23R WCI  35
$$

ALZ008>010-260400-
NORTHEAST ALABAMA

CITY           SKY/WX    TMP DP  RH WIND       PRES   REMARKS
ALBERTVILLE    CLEAR     39  37  93 SE5       30.20F
FORT PAYNE     CLEAR     32  30  93 CALM      30.23S
SCOTTSBORO AP  CLEAR     32  32 100 CALM      30.24S
VALLEY HEAD      N/A     30 N/A N/A MISG        N/A
$$

TNZ076-096-097-260400-
SOUTHEASTERN MIDDLE TENNESSEE

CITY           SKY/WX    TMP DP  RH WIND       PRES   REMARKS
TULLAHOMA      CLEAR     37  34  87 S6        30.19R WCI  33
WINCHESTER     CLEAR     36  34  93 SE3       30.20R
$$

...SURROUNDING SITES...

CITY           SKY/WX    TMP DP  RH WIND       PRES   REMARKS
ATLANTA        PTCLDY    40  34  79 CALM      30.25S
ANNISTON       CLEAR     36  34  92 CALM      30.25F
BIRMINGHAM     CLEAR     38  34  85 E3        30.24F
CHATTANOOGA    CLEAR     38  34  85 CALM      30.25R
CORINTH        FAIR      37  36  93 CALM      30.18R
DALTON         CLEAR     34  34 100 CALM      30.25S
GADSDEN        CLEAR     34  30  86 CALM      30.24F
GOLDEN TRNGL   CLEAR     43  34  70 SE7       30.19F
HALEYVILLE     FAIR      39  35  85 CALM      30.22F
JACKSON TN     CLEAR     44  34  67 S8        30.15S
LEWISBURG      FAIR      30  28  92 CALM      30.18R
MEMPHIS        PTCLDY    43  34  70 S6        30.13S
MURFREESBORO   FAIR      36  33  88 SE5       30.17F WCI  32
NASHVILLE      CLEAR     39  34  82 S6        30.17F WCI  35
OXFORD MS      FAIR      41  34  75 S7        30.18S
ROME           CLEAR     33  32  96 CALM      30.24F
SAVANNAH       CLEAR     39  36  87 SE5       30.18S
TUPELO         CLEAR     42  34  73 S6        30.19S
TUSCALOOSA     CLEAR     38  35  89 CALM      30.24S
$$

...GULF COAST WEATHER...

CITY           SKY/WX    TMP DP  RH WIND       PRES   REMARKS
GULFPORT       PTCLDY    42  39  89 CALM      30.23S
PASCAGOULA     PTCLDY    37  36  96 CALM      30.25S
MOBILE         PTCLDY    38  37  97 CALM      30.25R
GULF SHORES    CLEAR     38  38  99 CALM      30.25S
DESTIN         CLEAR     45  41  86 CALM      30.26R
PANAMA CITY    CLEAR     45  44  97 NE1       30.26F
APPALACHICOLA  CLEAR     49  42  77 NE5       30.26S
$$



USA.gov is the U.S. government's official web portal to all federal, state and local government web resources and services.